This is the latest recevied weather packets stored in our database for station/object N5PA. If no packets are shown the sender has not sent any weather packets the latest 10 day(s).
| Time | Temp. | Humidity | Pressure | Rain* | Wind** | Luminosity | Snow |
|---|---|---|---|---|---|---|---|
| 1778098208 | 27.78° C | 72% | 1011.7 hPa | 0 mm | - | 983 W/m² | - |
| 1778097905 | 27.78° C | 72% | 1011.8 hPa | 0 mm | - | 981 W/m² | - |
| 1778097607 | 27.78° C | 73% | 1011.8 hPa | 0 mm | - | 981 W/m² | - |
| 1778097308 | 27.78° C | 73% | 1012 hPa | 0 mm | - | 981 W/m² | - |
| 1778097006 | 27.78° C | 73% | 1012.2 hPa | 0 mm | - | 979 W/m² | - |
| 1778096706 | 27.78° C | 73% | 1012.2 hPa | 0 mm | - | 979 W/m² | - |
| 1778096407 | 27.22° C | 73% | 1012.4 hPa | 0 mm | - | 981 W/m² | - |
| 1778096106 | 26.67° C | 73% | 1012.4 hPa | 0 mm | - | 983 W/m² | - |
| 1778095807 | 26.67° C | 72% | 1012.6 hPa | 0 mm | - | 983 W/m² | - |
| 1778095506 | 26.67° C | 73% | 1012.7 hPa | 0 mm | - | 981 W/m² | - |
| 1778095206 | 26.67° C | 73% | 1012.8 hPa | 0 mm | - | 983 W/m² | - |
| 1778094907 | 26.67° C | 73% | 1012.9 hPa | 0 mm | - | 983 W/m² | - |
| 1778094608 | 26.67° C | 73% | 1013 hPa | 0 mm | - | 984 W/m² | - |
| 1778094306 | 26.67° C | 72% | 1013.1 hPa | 0 mm | - | 979 W/m² | - |
| 1778094007 | 26.67° C | 72% | 1013.1 hPa | 0 mm | - | 979 W/m² | - |
| 1778093707 | 26.67° C | 69% | 1013.2 hPa | 0 mm | - | 977 W/m² | - |
| 1778093406 | 26.11° C | 68% | 1013.2 hPa | 0 mm | - | 981 W/m² | - |
| 1778093107 | 26.11° C | 64% | 1013.3 hPa | 0 mm | - | 983 W/m² | - |
| 1778092807 | 26.11° C | 61% | 1013.4 hPa | 0 mm | - | 981 W/m² | - |
| 1778092507 | 25.56° C | 61% | 1013.5 hPa | 0 mm | - | 984 W/m² | - |
| 1778092208 | 25.56° C | 60% | 1013.5 hPa | 0 mm | - | 981 W/m² | - |
| 1778091906 | 25.56° C | 60% | 1013.5 hPa | 0 mm | - | 984 W/m² | - |
| 1778091608 | 25.56° C | 59% | 1013.4 hPa | 0 mm | - | 986 W/m² | - |
| 1778091306 | 25.56° C | 58% | 1013.4 hPa | 0 mm | - | 988 W/m² | - |
| 1778091007 | 25° C | 57% | 1013.4 hPa | 0 mm | - | 986 W/m² | - |
* Rain latest hour (hover to see other rain measurements)
** Current wind speed in m/s (hover to see current wind gust speed)